Tracking 17267 objects as of 30-August-2015
HD Live streaming from Space Station

BREEZE-M DEB

Track BREEZE-M DEB now!
10-day predictions
BREEZE-M DEB is classified as:


NORAD ID: 34259
Int'l Code: 2006-006CA
Perigee: 1,077.7 km
Apogee: 14,769.6 km
Inclination: 51.0 °
Period: 283.5 minutes
Semi major axis: 14294 km
RCS: 0.2413 m2 (medium)
Launch date: February 28, 2006
Source: Commonwealth of Independent States (former USSR) (CIS)

Note: This is SATELLITE DEBRIS
Your satellite tracking list
Your tracking list is empty





NASA's NSSDC Master Catalog

Two Line Element Set (TLE):
1 34259U 06006CA  15241.76405502 -.00000033 +00000-0 +00000-0 0  9994
2 34259 050.9981 048.9592 4789164 310.1193 016.7804 05.07976611177059

Source of the keplerian elements: AFSPC

N2YO: 245